Location: Kempten
(47.7167°N, 10.3167°E)
Time: 09:15:26
(UTC+02:00)

Nauka - Visible Passes

Search period start: 23 September 2021 00:00
Search period end: 03 October 2021 00:00
Orbit: 419 x 424 km, 51.6° (Epoch: 22 September)

Date Brightness Start Highest point End Pass type
(mag) Time Alt. Az. Time Alt. Az. Time Alt. Az.
23 Sep ? 20:11:24 10° W 20:14:43 55° NNW 20:17:41 12° ENE visible
23 Sep ? 21:48:42 10° WNW 21:50:41 28° NW 21:50:41 28° NW visible
24 Sep ? 21:01:42 10° WNW 21:04:56 40° N 21:05:31 36° NNE visible
25 Sep ? 20:14:41 10° WNW 20:17:54 41° N 20:20:21 16° ENE visible
25 Sep ? 21:51:48 10° WNW 21:53:20 24° NW 21:53:20 24° NW visible
26 Sep ? 21:04:51 10° WNW 21:08:08 46° N 21:08:09 46° NNE visible
27 Sep ? 20:17:53 10° WNW 20:21:07 42° N 20:22:58 21° ENE visible
27 Sep ? 21:54:48 10° WNW 21:55:58 20° WNW 21:55:58 20° WNW visible
28 Sep ? 19:30:53 10° WNW 19:34:06 40° N 19:37:19 10° ENE visible
28 Sep ? 21:07:53 10° WNW 21:10:47 60° NW 21:10:47 60° NW visible
29 Sep ? 20:20:56 10° WNW 20:24:16 56° NNE 20:25:38 31° E visible
29 Sep ? 21:57:54 10° WNW 21:58:38 15° W 21:58:38 15° W visible
30 Sep ? 19:33:59 10° WNW 19:37:15 47° N 19:40:31 10° E visible
30 Sep ? 21:10:52 10° WNW 21:13:31 45° WSW 21:13:31 45° WSW visible
01 Oct ? 20:23:54 10° WNW 20:27:17 81° SSW 20:28:27 38° ESE visible
02 Oct ? 19:36:57 10° WNW 19:40:20 75° NNE 19:43:26 12° ESE visible
02 Oct ? 21:14:09 10° W 21:16:26 23° SW 21:16:26 23° SW visible
